Date,TemperatureHighF,TemperatureAvgF,TemperatureLowF,DewpointHighF,DewpointAvgF,DewpointLowF,HumidityHigh,HumidityAvg,HumidityLow,PressureMaxIn,PressureMinIn,WindSpeedMaxMPH,WindSpeedAvgMPH,GustSpeedMaxMPH,PrecipitationSumIn
2012-1-1,68.6,53.7,37.6,54.5,43.8,33.5,90,72,32,30.20,29.94,16,2,20,0.00
2012-1-2,60.8,48.7,37.3,53.9,28.8,16.4,81,48,26,30.05,29.91,12,2,18,0.00
2012-1-3,39.1,33.2,27.6,25.0,11.1,4.0,70,41,24,30.34,29.97,26,4,28,0.00
2012-1-4,44.1,31.3,19.9,25.6,13.5,5.2,70,50,20,30.44,30.15,8,0,12,0.00
2012-1-5,58.5,44.1,35.5,28.6,21.7,15.1,75,43,25,30.14,30.02,10,1,18,0.00
2012-1-6,67.7,48.8,33.0,42.5,33.2,27.2,87,60,22,30.15,30.02,11,1,16,0.00
2012-1-7,71.1,56.9,48.1,49.8,44.2,38.5,81,64,43,30.08,29.97,13,1,18,0.00
2012-1-8,63.6,56.1,51.9,50.4,44.9,34.5,87,68,38,30.26,30.07,11,1,17,0.00
2012-1-9,54.7,50.8,44.5,48.3,44.7,40.0,87,80,63,30.23,30.05,6,0,12,0.08
2012-1-10,61.4,51.5,46.5,49.9,45.7,41.6,89,81,62,30.11,30.01,7,0,8,0.00
2012-1-11,62.6,56.5,46.5,59.1,52.0,41.9,90,85,74,30.01,29.58,8,1,17,1.23
2012-1-12,63.5,55.6,48.4,55.1,46.6,41.7,87,72,58,29.75,29.60,19,3,22,0.00
2012-1-13,64.7,45.7,35.6,55.1,25.7,14.2,73,46,32,30.08,29.61,20,5,30,0.00
2012-1-14,48.5,38.7,30.9,25.8,22.6,18.7,76,54,31,30.25,30.07,7,1,13,0.00
2012-1-15,49.6,39.6,29.8,29.6,23.9,20.7,77,55,34,30.56,30.14,16,2,23,0.00
2012-1-16,54.2,40.8,28.7,38.9,30.6,20.3,81,68,48,30.63,30.38,5,0,12,0.00
2012-1-17,67.7,57.0,44.5,53.5,48.5,38.9,87,74,54,30.38,30.01,17,2,25,0.01
2012-1-18,61.1,53.3,40.9,55.5,45.7,32.8,88,76,51,30.08,29.88,14,3,22,0.19
2012-1-19,52.4,41.4,31.0,36.9,31.1,24.3,80,68,45,30.23,30.06,6,0,8,0.00
2012-1-20,62.6,50.0,37.8,47.9,39.3,32.6,88,69,36,30.19,30.10,8,0,8,0.00
2012-1-21,69.2,60.6,52.3,58.0,54.4,47.9,93,80,58,30.13,29.92,20,3,29,0.18
2012-1-22,57.3,43.0,39.7,53.5,39.3,36.4,89,87,84,30.33,30.06,12,2,22,0.00
2012-1-23,61.6,52.1,41.8,58.3,48.8,38.2,93,88,86,30.28,30.05,5,0,6,0.01
2012-1-24,76.5,64.9,50.4,62.2,56.1,44.1,90,75,41,30.21,30.06,12,1,18,0.00
2012-1-25,66.0,52.6,43.3,46.5,42.4,39.0,88,71,37,30.31,30.19,7,0,13,0.01
2012-1-26,71.5,57.9,43.4,62.3,52.6,39.2,90,83,69,30.19,29.89,8,0,14,0.02
2012-1-27,69.8,63.5,49.0,63.3,54.8,42.1,88,75,43,30.02,29.69,20,3,40,0.39
2012-1-28,64.8,50.9,38.8,49.7,42.2,34.4,86,73,55,30.16,30.02,4,0,6,0.00
2012-1-29,58.2,45.3,34.4,41.0,28.0,16.8,84,56,20,30.36,30.17,10,1,19,0.00
2012-1-30,62.4,44.7,32.1,32.2,25.2,14.8,85,53,16,30.45,30.31,12,1,16,0.00
2012-1-31,67.9,48.9,33.9,40.1,31.4,22.6,88,58,19,30.45,30.32,8,1,19,0.00
2012-2-1,73.0,58.2,46.2,50.8,47.3,40.0,87,69,37,30.32,30.12,14,1,19,0.00
2012-2-2,72.4,61.3,51.0,57.6,51.3,43.0,88,72,41,30.27,30.02,13,2,22,0.19
2012-2-3,60.5,48.9,41.7,42.5,36.1,28.1,83,63,31,30.47,30.27,12,1,13,0.00
2012-2-4,66.5,55.3,42.7,54.4,47.2,37.6,84,75,60,30.38,30.05,11,1,13,0.00
2012-2-5,63.6,56.1,44.0,57.3,50.4,38.2,86,81,73,30.21,29.95,16,2,20,0.08
2012-2-6,53.5,46.5,39.1,44.4,38.8,32.7,85,75,67,30.27,30.10,7,1,12,0.09
2012-2-7,60.7,49.9,41.9,43.9,40.2,36.2,85,70,46,30.17,30.10,7,1,13,0.00
2012-2-8,61.1,45.7,36.0,43.8,36.1,31.9,87,71,39,30.17,30.04,8,1,18,0.01
2012-2-9,53.4,41.2,32.8,33.6,31.2,28.4,86,69,40,30.29,30.14,12,1,14,0.00
2012-2-10,54.1,43.8,30.9,45.6,38.1,26.6,89,81,69,30.25,29.86,4,0,7,0.15
2012-2-11,57.2,46.2,29.8,45.4,34.5,6.1,88,67,29,29.99,29.68,18,3,30,0.01
2012-2-12,43.0,32.2,25.1,16.1,7.0,1.4,56,35,22,30.25,30.00,23,3,26,0.00
2012-2-13,50.8,36.9,24.6,26.7,19.2,12.3,73,51,22,30.31,30.17,6,0,11,0.00
2012-2-14,55.1,45.4,33.6,39.1,34.1,24.9,81,66,31,30.18,30.06,5,0,7,0.00
2012-2-15,67.0,52.4,43.1,45.3,41.5,36.8,86,69,34,30.28,30.09,12,1,16,0.00
2012-2-16,62.7,54.6,42.8,59.2,50.3,37.9,89,85,77,30.28,29.97,11,1,14,0.61
2012-2-17,67.1,56.1,47.2,54.4,47.2,41.8,88,74,45,30.10,29.98,10,1,14,0.00
2012-2-18,66.0,53.7,41.8,53.0,45.6,37.9,90,75,53,30.12,29.96,7,1,12,0.06
2012-2-19,56.3,51.1,40.7,52.8,47.6,36.8,89,88,82,29.96,29.61,18,3,20,1.15
2012-2-20,54.1,43.6,37.3,36.5,31.2,26.0,86,64,35,30.34,29.78,19,4,25,0.00
2012-2-21,61.9,48.4,35.1,51.2,41.1,28.2,86,76,63,30.35,30.04,5,0,8,0.00
2012-2-22,72.6,59.6,48.7,55.7,47.6,34.6,87,68,25,30.05,29.67,13,2,26,0.01
2012-2-23,78.7,67.3,60.0,60.8,58.1,55.5,87,74,47,29.75,29.65,16,3,25,0.00
2012-2-24,73.3,67.7,61.2,63.7,61.5,50.9,88,81,69,29.80,29.65,20,4,28,0.64
2012-2-25,61.2,50.3,40.9,49.9,24.9,15.0,67,39,20,30.33,29.80,18,4,29,0.00
2012-2-26,50.9,40.1,29.7,33.3,26.4,17.6,85,59,37,30.52,30.33,8,1,11,0.00
2012-2-27,64.9,54.7,38.2,54.7,47.6,33.0,86,77,64,30.45,30.31,6,0,11,0.09
2012-2-28,63.6,56.3,49.2,54.2,46.2,39.5,88,71,44,30.40,30.31,10,1,17,0.00
2012-2-29,75.8,61.3,46.0,63.0,53.6,40.8,86,76,60,30.32,29.92,22,2,25,0.00
2012-3-1,81.0,69.3,64.0,62.9,60.4,57.1,86,74,47,29.94,29.77,23,4,28,0.02
2012-3-2,66.1,62.4,59.0,61.8,58.0,54.9,88,86,82,30.00,29.79,11,1,20,0.00
2012-3-3,69.6,63.9,58.3,62.4,58.4,54.7,89,83,73,29.79,29.68,16,2,22,0.74
2012-3-4,58.5,48.9,39.8,55.3,41.3,31.2,93,76,47,30.08,29.62,18,2,28,1.31
2012-3-5,64.3,48.1,33.9,38.6,27.8,15.2,87,51,17,30.50,30.00,22,3,34,0.00
2012-3-6,52.7,41.6,29.3,35.6,28.1,21.3,78,60,41,30.68,30.50,14,1,17,0.00
2012-3-7,65.5,51.5,37.7,52.0,43.8,32.3,85,76,60,30.65,30.47,12,1,16,0.00
2012-3-8,75.5,62.8,50.4,58.8,53.3,46.7,90,73,44,30.47,30.18,8,0,14,0.01
2012-3-9,68.6,60.9,45.1,61.4,54.0,39.9,89,79,61,30.29,30.09,13,2,18,0.00
2012-3-10,58.9,48.2,37.5,40.5,37.0,33.1,88,67,40,30.52,30.28,13,2,17,0.01
2012-3-11,63.1,49.6,35.3,41.2,33.9,27.7,79,57,35,30.57,30.45,12,1,16,0.00
2012-3-12,72.6,56.3,41.7,55.7,46.0,37.5,90,71,44,30.45,30.30,6,0,8,0.00
2012-3-13,77.5,63.5,52.3,58.4,53.3,47.0,88,71,43,30.30,30.17,12,1,17,0.00
2012-3-14,81.9,66.9,58.9,62.6,57.3,53.7,85,72,44,30.24,30.16,12,1,13,0.00
2012-3-15,83.0,66.5,54.2,61.9,56.5,50.2,89,73,42,30.30,30.21,6,0,12,0.00
2012-3-16,80.4,67.6,57.2,63.9,59.4,53.4,90,76,53,30.26,30.13,12,1,13,0.01
2012-3-17,83.1,68.9,59.9,60.8,57.9,54.7,86,70,40,30.24,30.15,7,1,11,0.00
2012-3-18,76.4,63.7,59.7,63.7,58.4,56.3,90,84,63,30.31,30.19,6,0,8,0.12
2012-3-19,79.3,65.0,59.0,64.8,59.5,55.4,90,83,55,30.23,30.12,6,0,10,1.47
2012-3-20,80.5,66.7,55.1,64.8,58.8,51.6,90,77,52,30.24,30.15,5,0,8,0.00
2012-3-21,78.9,67.8,58.9,65.6,60.2,55.4,90,78,54,30.31,30.21,10,0,13,0.01
2012-3-22,77.9,68.9,63.2,64.6,61.5,58.1,89,78,60,30.29,30.17,6,0,14,0.00
2012-3-23,82.9,68.7,58.1,65.6,60.2,54.0,90,76,53,30.17,30.00,6,0,12,0.00
2012-3-24,77.7,68.2,61.5,67.2,61.9,56.9,90,81,57,30.02,29.79,6,0,13,0.04
2012-3-25,78.0,64.2,56.4,60.9,56.4,51.2,89,77,49,29.80,29.64,14,1,23,0.25
2012-3-26,79.0,64.9,55.5,56.0,51.0,40.9,88,65,27,30.06,29.72,18,3,24,0.02
2012-3-27,62.7,54.4,45.8,45.9,36.1,26.6,77,51,29,30.33,30.06,10,1,19,0.00
2012-3-28,77.3,61.0,41.5,60.1,50.8,36.8,90,71,47,30.30,29.93,14,2,20,0.00
2012-3-29,89.1,73.4,63.2,59.2,54.3,43.3,80,55,23,29.93,29.81,14,3,24,0.00
2012-3-30,78.1,67.9,55.9,66.0,57.5,48.3,84,70,56,30.00,29.87,16,2,20,0.00
2012-3-31,74.3,69.6,66.2,65.0,61.3,56.3,84,75,62,29.91,29.71,16,1,19,0.06
2012-4-1,69.1,62.3,53.5,61.3,53.9,48.0,86,75,55,29.92,29.71,11,1,17,0.00
2012-4-2,83.9,67.8,56.9,61.5,55.8,43.2,84,68,36,29.94,29.65,13,2,22,0.00
2012-4-3,73.7,60.0,46.1,52.5,44.4,32.1,89,61,22,30.04,29.91,7,0,12,0.00
2012-4-4,85.3,71.1,59.1,63.8,59.9,52.3,85,70,42,29.91,29.62,11,1,17,0.00
2012-4-5,70.2,62.6,50.5,64.5,54.1,42.7,88,74,56,29.82,29.64,13,2,23,0.03
2012-4-6,59.4,49.6,42.8,46.8,42.5,36.3,87,77,47,30.06,29.72,19,3,23,0.34
2012-4-7,69.3,51.9,36.2,42.1,33.8,20.6,88,58,16,30.24,30.06,11,1,17,0.01
2012-4-8,79.9,63.1,45.3,55.4,40.4,13.2,86,53,8,30.17,29.95,11,2,17,0.00
2012-4-9,75.2,63.9,55.5,55.4,42.9,23.1,79,51,15,30.06,29.91,8,1,14,0.00
2012-4-10,79.5,66.0,54.1,53.0,42.8,25.1,74,49,14,29.99,29.81,17,2,18,0.00
2012-4-11,67.0,58.7,44.9,53.3,32.9,20.5,79,41,17,30.12,29.79,17,2,20,0.05
2012-4-12,66.9,51.4,35.4,37.6,29.5,22.0,74,47,19,30.20,30.11,17,1,18,0.00
2012-4-13,72.7,56.2,39.3,44.1,37.1,30.9,87,54,23,30.29,30.17,7,0,13,0.00
2012-4-14,77.7,60.4,42.4,52.9,43.1,34.5,86,58,22,30.37,30.24,12,0,14,0.00
2012-4-15,80.6,68.4,57.0,59.2,55.3,50.9,87,65,44,30.27,30.20,18,2,19,0.00
2012-4-16,86.0,70.8,57.6,61.9,55.6,51.2,89,62,34,30.25,30.14,17,1,20,0.00
2012-4-17,89.2,74.6,64.6,64.3,60.2,57.4,84,63,38,30.18,30.05,13,2,19,0.00
2012-4-18,82.8,71.3,60.5,63.2,60.1,55.6,88,69,45,30.12,30.00,6,0,10,0.00
2012-4-19,72.4,66.1,61.8,63.0,58.9,56.3,87,78,63,30.05,29.97,7,1,13,0.00
2012-4-20,79.7,66.8,59.3,61.9,57.9,54.8,85,74,52,30.02,29.86,7,1,12,0.01
2012-4-21,83.3,69.1,58.6,67.3,61.1,54.7,89,77,53,29.89,29.73,6,0,12,0.10
2012-4-22,68.8,64.3,54.7,65.4,59.3,49.6,89,84,75,29.73,29.36,17,2,17,0.41
2012-4-23,59.8,52.9,43.8,49.1,40.4,32.4,85,65,37,29.77,29.47,20,3,24,0.01
2012-4-24,68.1,54.1,40.2,38.1,30.3,16.7,83,48,15,29.85,29.73,16,2,24,0.00
2012-4-25,72.1,57.8,48.2,53.0,45.9,36.4,82,66,44,30.02,29.85,10,1,12,0.04
2012-4-26,84.2,71.2,56.6,61.1,58.5,50.5,87,66,36,29.95,29.76,22,3,26,0.00
2012-4-27,86.7,72.9,64.0,65.3,61.5,57.7,84,69,44,30.06,29.87,14,2,20,0.06
2012-4-28,77.5,68.9,64.9,65.1,62.4,60.0,89,81,64,30.14,30.03,7,1,11,0.73
2012-4-29,74.9,67.7,63.0,63.8,60.7,58.6,89,79,63,30.19,30.10,8,1,13,0.00
2012-4-30,77.5,69.4,63.5,63.2,60.6,57.6,85,74,56,30.25,30.17,12,1,14,0.00
2012-5-1,85.1,75.5,67.9,68.6,64.8,60.5,87,71,49,30.20,30.08,12,1,16,0.00
2012-5-2,90.8,76.7,65.7,69.7,64.7,59.3,87,68,38,30.17,30.06,12,1,17,0.00
2012-5-3,89.8,77.6,66.7,70.1,65.5,62.5,87,68,42,30.15,30.04,11,1,18,0.00
2012-5-4,91.0,76.0,66.7,70.0,64.8,61.7,85,70,39,30.09,29.94,13,1,17,0.00
2012-5-5,95.3,80.4,70.8,69.0,66.1,60.3,85,64,32,29.95,29.76,13,2,18,1.05
2012-5-6,79.6,72.0,65.9,66.9,64.4,58.5,89,78,59,30.00,29.79,14,2,20,0.05
2012-5-7,77.5,69.0,61.6,63.9,59.4,55.8,85,72,50,30.04,29.97,18,2,24,0.00
2012-5-8,82.7,72.7,61.7,61.4,58.8,54.9,83,63,43,30.02,29.90,7,0,12,0.00
2012-5-9,84.9,72.4,62.5,68.7,63.8,57.6,89,75,55,29.92,29.64,8,0,13,0.18
2012-5-10,79.8,68.0,58.1,59.6,50.5,39.4,85,58,24,29.96,29.68,12,2,19,0.00
2012-5-11,80.7,66.1,51.9,51.9,48.6,40.4,84,57,25,30.24,29.96,12,1,14,0.00
2012-5-12,82.2,68.2,53.4,59.4,50.6,39.6,87,58,27,30.35,30.23,6,0,11,0.00
2012-5-13,79.7,70.0,58.9,59.3,56.6,52.8,84,64,45,30.29,30.15,7,0,12,0.00
2012-5-14,81.0,73.2,67.4,68.0,63.0,56.9,86,71,57,30.15,29.97,7,0,12,0.26
2012-5-15,85.8,75.9,70.1,71.7,68.2,61.1,88,78,53,30.01,29.92,6,0,14,0.04
2012-5-16,85.2,74.0,69.2,71.4,67.6,64.6,86,81,62,29.99,29.90,5,0,8,0.06
2012-5-17,80.8,71.7,65.8,67.6,65.1,61.2,88,80,60,29.98,29.88,8,1,12,0.38
2012-5-18,70.6,65.6,56.8,62.4,58.1,48.3,88,77,64,30.03,29.93,12,2,19,0.17
2012-5-19,79.1,65.8,56.0,62.3,52.4,38.2,79,63,35,30.08,29.99,17,2,18,0.02
2012-5-20,75.8,66.1,53.1,63.0,54.5,42.5,81,67,50,30.08,30.01,10,1,16,0.00
2012-5-21,82.8,72.0,62.2,68.4,63.0,57.4,88,74,56,30.01,29.88,11,1,13,0.00
2012-5-22,86.0,73.8,65.8,71.4,65.0,61.2,88,75,55,29.91,29.81,12,0,13,0.00
2012-5-23,86.2,76.1,69.0,70.2,66.6,62.0,86,74,46,29.97,29.84,6,0,20,0.00
2012-5-24,86.0,77.0,68.0,72.1,68.3,63.3,88,75,59,30.03,29.95,13,1,16,0.00
2012-5-25,85.5,76.0,71.2,70.5,68.4,65.2,88,78,60,30.08,30.01,12,1,17,0.04
2012-5-26,83.8,75.4,69.6,70.1,66.8,64.2,85,75,60,30.06,30.01,16,4,25,0.05
2012-5-27,85.4,78.0,72.6,71.9,70.3,67.7,86,78,63,30.10,30.01,16,2,20,0.01
2012-5-28,88.2,79.4,72.4,73.8,70.6,68.1,88,75,59,30.09,30.01,7,0,12,0.00
2012-5-29,89.6,80.6,74.2,73.3,70.7,68.5,86,73,55,30.04,29.86,8,1,17,0.00
2012-5-30,78.0,74.0,67.9,72.3,68.1,62.9,89,82,67,29.86,29.50,20,2,32,3.23
2012-5-31,92.4,78.3,66.4,69.9,64.6,58.6,88,67,35,29.92,29.82,8,0,13,0.01
2012-6-1,89.1,79.7,73.4,74.7,70.6,68.0,88,75,56,29.92,29.77,8,1,19,0.00
2012-6-2,84.5,75.3,65.1,69.1,61.8,54.3,83,64,38,29.89,29.75,10,1,13,0.00
2012-6-3,84.7,73.0,58.4,62.0,53.1,46.0,86,55,27,29.96,29.84,12,2,20,0.00
2012-6-4,79.9,74.6,70.4,68.1,65.5,61.8,83,74,57,29.85,29.65,11,1,16,0.01
2012-6-5,74.3,68.3,62.2,65.8,61.0,55.4,86,78,59,29.90,29.66,11,1,13,0.11
2012-6-6,75.0,65.0,57.4,61.9,56.3,52.6,85,74,54,29.99,29.88,11,1,19,0.04
2012-6-7,82.4,69.7,55.4,57.2,53.9,49.0,85,60,37,30.04,29.99,8,1,13,0.00
2012-6-8,87.0,72.9,58.4,64.1,58.2,53.6,87,63,38,30.04,29.97,6,0,11,0.00
2012-6-9,91.5,76.5,63.2,64.1,59.4,48.9,86,60,24,30.11,30.02,11,0,13,0.00
2012-6-10,86.5,76.0,63.6,68.6,64.1,58.3,88,68,49,30.18,30.08,6,0,8,0.00
2012-6-11,82.7,76.4,72.6,73.7,68.3,65.0,85,76,63,30.18,30.09,7,0,16,0.32
2012-6-12,78.5,75.0,72.9,71.9,69.2,66.8,88,82,71,30.09,29.90,8,1,12,2.48
2012-6-13,86.2,77.7,73.6,72.5,70.5,69.6,89,80,58,29.95,29.84,12,1,16,0.07
2012-6-14,78.9,72.9,62.6,69.5,61.8,56.2,84,69,58,30.12,29.95,12,2,16,0.00
2012-6-15,81.3,71.0,59.3,62.8,58.6,54.0,85,66,46,30.17,30.07,14,2,19,0.00
2012-6-16,81.7,70.3,57.1,63.8,57.6,51.3,83,65,49,30.20,30.11,10,1,16,0.00
2012-6-17,83.1,71.0,57.2,63.0,57.6,51.0,86,65,39,30.15,30.02,11,1,12,0.00
2012-6-18,85.8,73.8,61.1,66.2,60.5,56.3,87,65,42,30.13,30.05,6,0,11,0.00
2012-6-19,90.0,77.0,64.4,69.0,63.9,59.0,87,66,44,30.18,30.12,7,0,8,0.00
2012-6-20,91.6,78.6,69.8,71.9,67.0,63.6,85,69,42,30.18,30.07,12,0,12,0.00
2012-6-21,94.6,80.2,69.3,74.6,68.0,63.9,86,68,45,30.10,29.92,13,2,13,0.00
2012-6-22,93.8,81.1,71.8,72.2,67.0,63.5,81,64,45,29.96,29.85,13,1,16,0.00
2012-6-23,93.4,79.4,73.6,74.1,69.1,66.3,85,72,49,30.02,29.89,13,1,16,0.04
2012-6-24,88.3,79.2,71.5,75.2,71.8,67.4,89,79,62,30.02,29.92,6,0,12,0.01
2012-6-25,89.9,79.8,72.8,72.4,70.0,68.2,87,73,52,29.93,29.72,13,2,23,0.00
2012-6-26,78.3,72.8,65.0,69.8,59.4,52.0,86,65,41,29.86,29.70,12,2,18,0.10
2012-6-27,85.1,72.5,59.6,58.4,54.9,50.1,76,56,32,29.96,29.82,14,2,17,0.00
2012-6-28,96.5,78.9,60.6,64.2,57.0,50.1,87,53,22,30.02,29.90,11,1,16,0.00
2012-6-29,104.5,87.7,75.8,74.8,69.9,64.0,77,58,34,29.92,29.76,12,1,14,0.00
2012-6-30,102.6,87.5,77.3,78.5,74.4,71.9,87,67,43,29.89,29.80,7,0,11,0.00
2012-7-1,103.5,84.5,71.4,81.6,73.0,58.0,86,71,34,30.06,29.84,23,1,26,0.22
2012-7-2,96.0,84.1,74.9,70.8,67.1,63.4,82,59,35,30.01,29.92,16,2,18,0.00
2012-7-3,97.5,85.7,73.3,75.7,71.9,68.2,87,66,42,30.01,29.92,5,0,10,0.00
2012-7-4,99.5,86.7,79.2,75.5,71.5,65.4,84,63,34,30.00,29.90,13,1,17,0.00
2012-7-5,101.0,84.6,75.5,78.7,72.6,66.8,87,70,35,29.96,29.86,22,1,35,0.84
2012-7-6,97.6,86.2,78.3,78.9,74.7,71.2,87,70,43,29.97,29.88,11,1,13,0.00
2012-7-7,98.0,87.1,79.6,78.7,73.4,69.8,84,65,42,30.02,29.94,12,2,14,0.00
2012-7-8,99.4,87.8,80.5,74.9,72.7,69.5,78,63,39,30.00,29.87,14,2,19,0.00
2012-7-9,99.4,88.4,81.1,77.6,73.7,67.9,80,64,37,29.92,29.83,13,2,17,0.00
2012-7-10,91.4,81.3,72.9,76.7,72.5,67.9,87,75,56,30.05,29.89,7,0,14,0.93
2012-7-11,89.0,77.5,72.2,75.3,70.9,68.1,89,81,62,30.09,29.99,5,0,8,0.25
2012-7-12,86.8,78.7,73.0,75.1,72.2,69.2,89,81,66,30.15,30.07,8,0,8,0.01
2012-7-13,89.1,80.9,73.6,76.0,72.9,69.5,89,77,63,30.19,30.12,7,0,12,0.00
2012-7-14,90.8,82.3,73.1,75.8,72.1,68.7,89,73,56,30.22,30.14,7,0,13,0.00
2012-7-15,91.3,82.2,72.7,74.7,71.2,67.9,88,71,53,30.20,30.09,6,0,12,0.00
2012-7-16,92.6,81.5,73.1,75.1,70.6,66.5,87,71,49,30.11,29.93,12,1,17,0.00
2012-7-17,94.1,82.8,75.1,77.2,72.5,69.5,86,72,53,29.99,29.91,8,1,14,0.04
2012-7-18,93.5,83.3,76.0,74.2,71.8,69.7,84,69,47,30.03,29.94,12,1,17,0.01
2012-7-19,93.7,84.0,78.4,77.5,73.2,70.9,84,71,50,30.05,29.97,14,2,23,0.23
2012-7-20,91.5,84.4,78.2,76.1,72.9,70.7,83,69,54,30.01,29.92,19,3,23,0.01
2012-7-21,91.6,83.4,77.3,76.0,72.3,69.2,80,70,55,30.09,29.97,12,2,19,0.15
2012-7-22,96.7,85.7,79.8,77.1,73.6,69.6,81,68,43,30.17,30.08,16,1,16,0.00
2012-7-23,97.9,85.6,78.4,77.2,73.7,71.1,86,69,43,30.19,30.03,17,2,18,0.00
2012-7-24,100.5,85.0,75.4,75.9,71.7,66.1,88,67,38,30.04,29.80,22,3,28,0.52
2012-7-25,93.3,82.4,75.2,73.2,70.9,66.1,88,70,42,29.94,29.84,7,1,13,0.00
2012-7-26,96.7,86.5,77.4,82.9,75.5,71.3,87,71,51,29.93,29.82,13,1,14,0.03
2012-7-27,101.8,89.1,81.3,80.1,75.4,72.0,84,66,40,29.94,29.84,12,1,18,0.00
2012-7-28,93.8,83.4,74.9,76.8,73.3,69.4,87,73,53,29.99,29.91,8,1,20,0.12
2012-7-29,94.1,80.0,73.1,77.5,71.8,68.3,89,77,52,30.00,29.91,7,0,17,0.19
2012-7-30,83.2,77.6,72.8,74.5,70.7,68.7,89,80,67,30.01,29.94,5,0,12,0.01
2012-7-31,89.4,79.8,71.9,76.2,71.7,67.5,88,77,61,29.99,29.88,6,0,11,0.07
2012-8-1,86.3,77.4,71.8,73.9,71.0,67.2,89,81,63,29.94,29.84,2,0,20,1.74
2012-8-2,92.7,80.3,71.6,78.1,71.1,61.7,89,75,53,30.00,29.88,6,0,13,0.02
2012-8-3,92.0,80.6,71.6,78.5,71.1,64.8,89,74,52,30.10,29.95,10,0,13,0.01
2012-8-4,91.2,83.0,74.8,76.6,73.4,70.3,88,74,57,30.21,30.07,6,0,11,0.00
2012-8-5,92.0,83.6,78.1,77.8,73.9,71.0,86,74,55,30.23,30.13,8,0,13,0.03
2012-8-6,90.5,81.7,76.3,77.8,73.8,71.5,88,78,61,30.15,30.02,6,0,13,0.80
2012-8-7,84.7,78.5,74.4,76.8,72.6,69.7,89,83,72,30.06,29.97,6,0,11,0.63
2012-8-8,83.3,77.6,73.0,75.8,71.7,69.2,89,82,70,30.03,29.95,5,0,7,0.70
2012-8-9,89.5,80.6,72.4,75.8,72.3,68.4,89,77,59,30.00,29.89,6,0,8,0.00
2012-8-10,88.5,80.4,75.8,76.1,72.6,70.7,87,78,59,29.93,29.86,14,1,19,0.48
2012-8-11,85.1,79.4,74.5,76.7,72.8,69.0,87,81,68,29.97,29.90,11,1,19,0.08
2012-8-12,86.8,77.7,71.5,74.9,71.1,67.4,89,81,65,30.01,29.93,7,0,13,0.08
2012-8-13,89.9,79.7,72.0,76.4,72.1,67.9,89,78,60,30.04,29.95,6,0,7,0.00
2012-8-14,94.0,82.3,73.2,73.2,69.1,60.9,88,67,34,29.98,29.88,8,0,13,0.01
2012-8-15,93.4,84.3,78.3,75.8,73.5,71.0,83,71,50,29.95,29.86,11,1,16,0.00
2012-8-16,91.1,81.4,72.6,74.2,70.7,67.5,85,71,48,29.99,29.91,6,0,11,0.00
2012-8-17,93.8,82.2,72.0,75.1,71.3,65.8,88,71,42,29.99,29.83,10,0,12,0.00
2012-8-18,90.2,81.0,72.8,75.5,70.7,66.6,83,72,52,29.89,29.80,7,0,8,0.00
2012-8-19,93.1,77.1,72.4,77.0,70.9,67.6,88,82,56,29.89,29.80,22,0,22,1.14
2012-8-20,85.7,77.6,72.8,72.9,70.6,68.5,89,80,58,29.96,29.83,13,1,13,0.10
2012-8-21,79.6,75.2,72.9,71.5,69.8,67.8,88,84,72,30.06,29.95,7,0,11,0.09
2012-8-22,85.1,76.7,71.7,73.2,69.6,67.6,88,80,63,30.07,30.00,8,0,12,0.08
2012-8-23,84.4,74.7,71.2,73.3,69.0,66.9,89,83,64,30.10,30.04,14,1,14,0.35
2012-8-24,73.7,70.9,68.1,69.0,66.8,64.4,89,87,78,30.09,30.00,11,1,16,0.49
2012-8-25,75.8,70.6,66.9,66.8,64.8,62.0,88,82,71,30.12,30.01,6,0,11,0.00
2012-8-26,87.0,75.5,63.4,73.8,67.9,59.8,89,78,60,30.16,30.07,8,0,12,0.04
2012-8-27,87.7,79.4,74.9,77.5,73.7,70.9,89,83,69,30.11,30.01,7,0,14,0.55
2012-8-28,79.5,76.0,73.6,76.0,72.2,69.8,89,88,86,30.05,29.94,5,0,13,1.16
2012-8-29,84.8,76.8,73.9,74.7,71.8,69.5,90,85,70,30.02,29.90,6,0,12,1.30
2012-8-30,83.5,76.7,72.2,75.1,70.8,67.7,89,82,69,30.16,29.99,5,0,7,0.00
2012-8-31,90.4,78.6,68.3,75.6,70.5,64.3,90,77,59,30.22,30.10,4,0,7,0.01
2012-9-1,97.4,82.6,74.8,76.0,72.0,69.3,87,73,41,30.14,30.00,11,1,18,0.40
2012-9-2,93.2,80.3,75.5,79.8,74.1,70.5,89,82,60,30.03,29.94,8,0,10,0.11
2012-9-3,88.7,79.4,72.1,78.8,73.8,68.1,89,83,65,30.07,29.97,4,0,13,1.28
2012-9-4,90.2,79.8,72.1,75.2,70.6,67.9,89,75,54,30.04,29.95,6,0,12,0.00
2012-9-5,91.9,80.5,72.1,73.9,70.3,67.7,88,73,48,29.98,29.89,14,1,17,0.00
2012-9-6,92.1,80.9,73.5,77.4,72.7,69.1,88,77,53,29.97,29.88,11,0,14,0.14
2012-9-7,88.7,79.7,75.2,75.8,72.8,71.0,88,80,62,29.97,29.86,6,0,12,0.06
2012-9-8,89.9,79.6,72.8,77.0,72.3,68.4,89,79,61,29.87,29.75,14,1,17,0.28
2012-9-9,79.4,73.4,66.5,69.1,66.1,58.7,88,79,61,29.95,29.76,11,1,13,0.03
2012-9-10,82.4,70.0,59.2,58.7,55.2,51.1,86,63,34,30.15,29.95,16,1,16,0.01
2012-9-11,82.9,69.0,56.3,55.2,52.1,48.3,85,58,31,30.28,30.14,12,1,13,0.00
2012-9-12,81.4,70.0,59.2,63.3,58.0,51.8,81,67,49,30.32,30.25,11,1,14,0.00
2012-9-13,84.0,72.9,61.2,66.5,61.6,56.2,86,69,46,30.29,30.19,13,1,14,0.00
2012-9-14,85.1,74.4,67.0,70.3,66.4,62.3,89,77,58,30.21,30.11,12,1,16,0.13
2012-9-15,85.8,74.4,65.7,69.7,65.6,62.0,89,76,50,30.15,30.07,6,0,11,0.01
2012-9-16,81.5,74.0,67.5,68.4,65.0,60.4,85,74,61,30.14,30.06,7,0,11,0.03
2012-9-17,83.3,75.8,68.9,71.7,68.5,64.9,89,79,63,30.10,29.98,5,0,8,0.00
2012-9-18,85.0,78.0,73.5,75.0,71.1,68.7,87,80,69,29.98,29.77,20,1,23,0.54
2012-9-19,73.9,70.2,62.8,69.5,64.7,57.8,89,83,73,30.08,29.84,8,1,16,0.33
2012-9-20,80.9,69.8,62.2,63.6,59.8,57.0,85,71,52,30.12,30.03,11,1,13,0.00
2012-9-21,81.2,69.7,60.1,64.7,59.5,55.6,88,72,51,30.09,30.02,7,0,13,0.00
2012-9-22,84.8,71.5,62.0,69.2,63.2,57.6,89,76,51,30.05,29.95,5,0,8,0.00
2012-9-23,82.9,72.7,65.4,66.1,62.0,56.0,88,71,44,30.09,29.95,7,1,16,0.00
2012-9-24,76.8,66.1,56.2,59.3,52.6,47.0,83,64,38,30.19,30.08,12,1,18,0.00
2012-9-25,77.8,65.6,52.4,60.1,53.5,47.7,86,67,43,30.25,30.18,7,0,13,0.00
2012-9-26,83.6,69.3,57.6,64.5,59.3,53.4,89,72,50,30.23,30.16,5,0,8,0.00
2012-9-27,86.8,70.9,60.0,66.4,61.1,55.8,89,73,43,30.20,30.10,7,0,11,0.01
2012-9-28,86.4,72.3,62.8,69.2,63.9,58.9,89,76,48,30.12,29.99,7,0,12,0.00
2012-9-29,79.5,72.5,67.2,69.3,66.3,62.9,88,81,66,30.01,29.86,4,0,8,0.00
2012-9-30,72.4,68.2,64.1,64.3,63.0,60.5,89,84,74,29.91,29.84,7,0,8,0.43
2012-10-1,78.0,71.3,66.0,72.3,67.0,62.3,90,87,80,29.89,29.83,12,1,18,0.53
2012-10-2,80.8,77.2,74.0,76.5,73.2,70.1,90,87,82,30.01,29.82,7,0,11,0.60
2012-10-3,84.1,78.3,74.1,76.6,72.8,69.8,89,83,71,30.19,30.01,5,0,13,0.04
2012-10-4,85.9,77.2,70.2,71.2,68.6,66.1,89,76,56,30.22,30.13,7,0,13,0.00
2012-10-5,85.2,72.9,65.3,66.4,61.9,53.4,88,71,34,30.17,30.03,7,0,13,0.00
2012-10-6,84.9,71.0,59.9,68.3,62.1,55.8,89,75,46,30.03,29.88,6,0,12,0.01
2012-10-7,83.3,70.4,59.0,71.8,64.7,54.5,89,83,64,30.08,29.92,8,0,14,0.77
2012-10-8,67.5,58.4,54.9,61.1,53.8,50.7,88,85,79,30.15,30.01,12,2,19,0.25
2012-10-9,61.7,56.8,53.5,55.1,52.5,50.3,90,86,77,30.09,30.03,12,1,16,0.01
2012-10-10,72.2,61.6,54.4,56.1,53.1,49.7,88,75,54,30.10,29.97,12,1,17,0.00
2012-10-11,71.2,59.9,51.2,51.7,49.2,46.0,86,70,45,30.26,30.10,12,1,19,0.01
2012-10-12,75.6,60.9,47.8,54.8,49.1,44.1,89,68,39,30.29,30.14,7,0,14,0.01
2012-10-13,71.4,60.7,49.8,55.1,49.2,44.8,85,67,52,30.41,30.28,14,1,20,0.00
2012-10-14,82.2,65.4,51.9,63.7,55.5,46.1,89,73,46,30.32,30.07,6,0,11,0.00
2012-10-15,82.0,68.5,58.5,66.7,60.9,54.6,90,78,50,30.07,29.74,12,1,19,0.41
2012-10-16,70.8,60.3,51.4,60.8,48.5,44.9,87,67,40,29.94,29.80,8,1,17,0.01
2012-10-17,70.1,57.8,48.5,55.1,49.3,44.2,88,75,49,30.01,29.91,6,0,7,0.00
2012-10-18,77.5,65.5,53.1,68.4,59.9,48.4,90,82,71,29.95,29.81,4,0,10,0.02
2012-10-19,80.0,69.6,58.6,67.4,61.9,52.8,89,78,50,29.82,29.73,10,0,11,0.04
2012-10-20,76.9,62.4,51.0,52.6,47.7,39.6,87,63,27,29.92,29.79,8,1,17,0.01
2012-10-21,72.4,59.3,49.0,49.4,45.2,42.1,82,62,36,30.14,29.92,7,1,12,0.00
2012-10-22,73.2,56.7,43.9,50.6,44.9,39.4,87,68,37,30.22,30.14,7,0,11,0.00
2012-10-23,79.3,60.7,47.7,56.9,50.3,43.6,89,71,36,30.21,30.12,6,0,7,0.00
2012-10-24,82.4,65.9,53.7,63.7,57.1,49.6,89,75,45,30.19,30.09,6,0,8,0.01
2012-10-25,79.3,68.0,57.7,67.1,60.4,53.5,93,78,58,30.14,30.06,10,1,17,0.00
2012-10-26,74.1,66.8,59.4,65.7,60.7,54.3,87,81,73,30.06,29.79,16,3,22,0.02
2012-10-27,68.3,65.2,61.9,62.6,61.1,58.4,89,86,82,29.79,29.48,26,6,30,1.99
2012-10-28,62.7,60.3,58.3,58.6,53.4,48.8,93,78,65,29.50,29.42,18,7,32,0.85
2012-10-29,58.3,54.4,49.1,50.4,43.0,35.4,77,66,54,29.50,29.39,25,6,29,0.00
2012-10-30,57.2,51.5,47.0,40.6,36.2,33.2,67,56,43,29.66,29.42,17,3,24,0.00
2012-10-31,62.0,50.5,43.5,39.9,36.9,34.4,80,61,38,29.78,29.66,14,2,24,0.00
2012-11-1,63.0,48.5,37.0,43.8,36.0,25.6,88,66,25,29.88,29.73,14,1,23,0.00
2012-11-2,68.3,51.0,37.6,45.5,37.4,30.2,87,63,30,29.96,29.80,12,1,18,0.00
2012-11-3,63.4,49.6,36.8,39.3,35.4,31.0,87,62,30,30.09,29.96,8,1,17,0.00
2012-11-4,77.8,56.7,42.2,62.1,47.4,37.2,90,73,46,30.07,29.88,16,1,16,0.17
2012-11-5,59.8,50.5,44.1,43.0,40.8,37.4,87,71,48,30.06,29.93,11,1,18,0.00
2012-11-6,45.8,43.7,40.8,40.7,39.4,36.3,88,85,77,30.04,29.86,13,2,13,0.43
2012-11-7,54.6,44.5,37.7,42.5,36.8,32.1,84,75,58,29.92,29.80,14,1,16,0.00
2012-11-8,60.8,44.4,34.3,35.8,30.9,22.3,87,64,24,30.09,29.92,11,1,18,0.01
2012-11-9,63.8,46.1,32.5,38.1,31.2,25.6,84,60,25,30.27,30.09,6,0,8,0.00
2012-11-10,70.6,50.7,37.4,45.8,39.2,33.3,89,68,31,30.40,30.27,4,0,7,0.00
2012-11-11,71.1,56.9,43.2,57.4,49.7,39.3,90,78,58,30.49,30.40,11,1,16,0.00
2012-11-12,77.0,65.0,56.8,64.8,58.6,53.0,89,80,64,30.42,30.21,7,0,10,0.01
2012-11-13,66.8,57.7,45.8,63.5,54.0,41.9,89,87,85,30.32,30.16,14,2,19,0.61
2012-11-14,53.9,48.1,44.6,44.0,41.9,40.0,87,79,67,30.39,30.30,13,3,20,0.00
2012-11-15,48.8,46.3,43.0,46.3,41.9,38.3,93,84,75,30.30,30.17,16,4,19,0.30
2012-11-16,59.1,50.8,44.0,46.0,43.3,38.5,89,76,57,30.33,30.18,10,2,17,0.00
2012-11-17,56.7,49.0,39.7,47.4,41.9,34.3,85,77,68,30.36,30.31,13,4,20,0.00
2012-11-18,55.3,53.8,51.1,52.1,49.7,45.1,89,86,80,30.32,30.16,23,6,31,2.66
2012-11-19,57.5,54.3,51.7,51.4,49.5,47.4,89,84,78,30.18,30.07,20,6,24,0.48
2012-11-20,59.3,53.2,50.4,50.5,47.7,45.7,87,82,71,30.10,30.01,12,2,18,0.00
2012-11-21,60.8,51.7,44.3,47.9,42.9,36.5,86,73,57,30.12,30.03,12,2,17,0.00
2012-11-22,61.4,48.8,39.8,44.3,39.6,34.8,83,71,52,30.16,30.07,16,2,20,0.00
2012-11-23,67.4,50.3,36.2,46.7,38.3,31.5,86,67,29,30.15,29.86,5,0,12,0.00
2012-11-24,55.1,49.9,45.1,46.1,36.0,27.7,74,60,37,29.99,29.85,13,2,20,0.00
2012-11-25,54.2,43.5,35.2,35.1,29.8,20.3,80,62,27,30.14,30.08,7,0,13,0.00
2012-11-26,67.2,47.3,34.2,40.8,32.3,22.9,89,62,19,30.23,30.13,7,0,11,0.00
2012-11-27,63.6,50.3,38.7,48.9,41.7,33.7,87,74,38,30.20,30.09,4,0,6,0.12
2012-11-28,54.1,45.6,34.1,46.9,36.5,28.7,87,72,47,30.39,30.16,16,2,17,0.00
2012-11-29,57.0,40.6,28.9,38.0,29.9,25.0,88,69,33,30.49,30.39,6,0,8,0.00
2012-11-30,62.1,44.0,30.3,43.4,34.6,26.3,89,72,36,30.42,30.32,4,0,6,0.01
2012-12-1,65.1,49.6,37.6,51.9,42.5,33.8,90,78,53,30.40,30.32,6,0,8,0.00
2012-12-2,66.2,53.0,41.7,54.9,46.6,38.1,90,80,58,30.41,30.29,2,0,7,0.00
2012-12-3,73.8,58.9,50.0,59.5,52.0,46.3,89,79,52,30.32,30.24,17,0,17,0.01
2012-12-4,73.4,58.2,48.4,62.1,52.7,44.7,90,83,63,30.35,30.22,6,0,8,0.01
2012-12-5,75.2,62.4,51.6,57.5,52.9,47.9,89,73,41,30.22,30.08,8,1,18,0.05
2012-12-6,55.9,49.9,46.8,50.0,43.0,40.3,86,77,70,30.26,30.16,11,2,18,0.06
2012-12-7,64.3,55.5,45.6,59.0,50.5,40.1,87,83,78,30.16,29.97,11,1,13,0.00
2012-12-8,66.8,59.4,53.1,57.9,54.2,48.8,93,83,69,30.08,29.95,7,1,11,0.01
2012-12-9,70.9,60.7,51.9,62.1,55.8,48.5,90,84,71,30.16,30.00,4,0,7,0.01
2012-12-10,72.1,65.9,60.9,65.8,60.8,55.9,90,84,70,30.00,29.79,16,1,19,0.13
2012-12-11,71.2,66.2,56.8,65.8,60.5,53.0,89,82,67,30.08,29.77,10,1,18,0.06
2012-12-12,56.8,48.8,42.5,52.8,45.4,39.4,89,88,87,30.25,30.06,18,3,19,0.64
2012-12-13,51.9,44.7,42.3,44.9,40.7,38.2,93,86,76,30.31,30.10,14,3,20,0.29
2012-12-14,59.7,45.6,37.8,43.3,37.8,33.7,87,75,49,30.35,30.22,11,1,17,0.00
2012-12-15,59.5,49.4,37.8,50.4,43.8,33.7,89,81,69,30.26,30.09,5,0,6,0.01
2012-12-16,62.4,58.7,55.0,58.4,54.9,50.3,89,87,84,30.10,29.91,6,0,7,0.05
2012-12-17,64.0,61.8,58.0,60.7,58.1,54.5,90,88,83,29.91,29.67,7,1,13,0.33
2012-12-18,67.0,58.3,47.2,55.1,48.8,35.2,89,72,50,29.93,29.68,19,3,26,0.01
2012-12-19,66.5,50.5,40.4,41.5,36.7,32.8,82,63,29,30.13,29.93,7,0,14,0.00
2012-12-20,68.9,55.7,39.8,59.6,49.1,36.0,90,79,62,30.14,29.57,8,1,28,0.12
2012-12-21,66.1,47.7,37.4,62.4,32.3,22.8,88,56,41,29.85,29.51,32,6,32,0.21
2012-12-22,49.1,40.2,32.7,27.0,24.5,21.0,75,55,33,30.12,29.85,20,2,23,0.00
2012-12-23,55.7,41.8,28.5,38.7,28.2,15.9,82,61,25,30.20,30.06,6,0,7,0.00
2012-12-24,64.1,52.3,40.8,45.5,38.4,30.5,81,60,31,30.09,29.92,13,0,16,0.00
2012-12-25,59.9,52.3,46.8,50.9,45.9,39.8,86,79,70,30.12,29.94,7,0,12,0.03
2012-12-26,66.2,56.6,46.9,63.2,51.4,35.7,90,83,61,30.04,29.46,19,4,25,2.75
2012-12-27,55.4,45.2,38.0,35.7,33.3,31.5,78,64,43,30.06,29.67,12,2,19,0.00
2012-12-28,49.1,40.9,30.8,41.8,32.7,25.6,83,73,58,30.18,29.99,4,0,7,0.00
2012-12-29,53.0,48.0,44.0,47.3,42.8,36.0,89,82,69,30.00,29.65,12,2,25,1.31
2012-12-30,49.1,40.1,30.4,35.5,25.0,19.5,79,56,31,30.42,29.93,13,2,24,0.00
2012-12-31,56.6,40.7,26.5,43.8,30.1,22.3,87,69,33,30.42,30.16,10,1,16,0.01
2013-1-1,55.9,53.9,51.0,50.1,46.9,43.5,85,77,71,30.16,29.95,7,1,11,0.01